Вернуться в каталог

SL-8 R/B

АктивенPO
NORAD 21938·ROCKET BODY·🇷🇺 Russia

Запущен Apr 15, 1992 с Plesetsk Cosmodrome

Loading…

Ближайшие Пролёты (ближайшие 24 часа)

TLE

СвежийSource: Space-Track

Эпоха: Sep 14, 2026, 07:09 UTC

1 21938U 92020B   26257.29839155  .00000091  00000-0  78248-4 0  9993
2 21938  82.9341  13.6525 0030154 129.8226 259.2311 13.75559907727063

Отслеживайте SL-8 R/B в реальном времени с AllMySat

Download on the App Store